Regional Weather Roundup
Issued by NWS

Home | Current Version | Previous Version | Text Only | Print | Product List | Glossary On
Versions: 1 2 3 4 5 6 7 8 9 10 11 12 13 14 15 16 17 18 19 20 21 22 23 24 25 26 27 28 29 30 31 32 33 34 35 36 37 38 39 40 41 42 43 44 45 46 47 48 49 50
000
ASUS44 KFWD 250415
RWRTX
NORTH TEXAS HOURLY WEATHER ROUNDUP
NATIONAL WEATHER SERVICE FORT WORTH TX
1100 PM CDT SAT JUN 24 2017

NOTE: "FAIR" INDICATES FEW OR NO CLOUDS BELOW 12,000 FEET WITH NO
SIGNIFICANT WEATHER AND/OR OBSTRUCTIONS TO VISIBILITY.

TXZ118-119-250500-
DALLAS/FORT WORTH METROPLEX

CITY           SKY/WX    TMP DP  RH WIND       PRES   REMARKS
DFW AIRPORT    PTCLDY    76  63  64 E9        30.14R
DALLAS LOVE    PTCLDY    75  64  68 NE5       30.15R
FTW MEACHAM    CLEAR     77  66  68 E7        30.15R
DAL-EXECUTIVE  MOCLDY    75  67  76 NE8       30.15R
FTW-ALLIANCE   PTCLDY    74  67  78 NE5       30.16R
FTW-NAS-JRB      N/A    N/A N/A N/A MISG      30.16R
FTW-SPINKS     CLEAR     73  65  77 E3        30.17R
ARLINGTON      CLEAR     76  66  71 CALM      30.16R
GRAND PRAIRIE  CLEAR     76  64  66 N7        30.16R
ADDISON        CLEAR     75  62  62 E8        30.17R
MESQUITE       CLEAR     73  66  79 CALM      30.15R
LANCASTER      CLEAR     73  67  80 CALM      30.16R
$$

TXZ091>094-102>105-117-120-121-131>134-250500-
NORTH CENTRAL TEXAS

CITY           SKY/WX    TMP DP  RH WIND       PRES   REMARKS
SHRMAN/DENISON CLEAR     70  65  85 NE3       30.20R
GAINESVILLE    CLEAR     70  62  75 NE5       30.20R
BOWIE          CLEAR     70  68  95 E3        30.19R
BRIDGEPORT     CLEAR     69  69 100 CALM      30.19R
DECATUR        CLEAR     71  66  84 E6        30.18R
DENTON         CLEAR     73  66  78 NE6       30.16R
MCKINNEY       PTCLDY    72  66  81 NE6       30.16R
BONHAM         CLEAR     70  64  83 CALM      30.18R
GREENVILLE     PTCLDY    75  64  69 NE3       30.16R
ROCKWALL       CLEAR     72  64  76 NE5       30.16R
TERRELL        CLEAR     72  67  84 N5        30.15R
WAXAHACHIE     MOCLDY    74  68  82 NE5       30.17R
CLEBURNE       CLEAR     73  72  94 E8        30.17R
GRANBURY       CLEAR     75  67  77 CALM      30.17R
$$

TXZ083>090-098>101-113>116-127>130-139>142-154-155-250500-
WESTERN NORTH TEXAS

CITY           SKY/WX    TMP DP  RH WIND       PRES   REMARKS
WICHITA FALLS  CLOUDY    74  63  68 E6        30.18R
WF-KICKAPOO    CLOUDY    75  64  68 E6        30.21R
VERNON         CLOUDY    76  64  65 SE7       30.20R
ABILENE        MOCLDY    73  67  81 E9        30.19R
ABILENE-DYESS  CLEAR     73  67  80 E12       30.18R
GRAHAM         CLEAR     69  32  25 E3        30.17R
BRECKENRIDGE   CLEAR     73  67  81 E3        30.18R
CISCO          CLOUDY    73  68  83 E6        30.19R
EASTLAND       PTCLDY    72  67  87 CALM      30.19R
MINERAL WELLS  CLEAR     72  68  87 NE3       30.16R
STEPHENVILLE   CLEAR     72  66  83 CALM      30.21R
COMANCHE       PTCLDY    71  71 100 CALM      30.19R
BROWNWOOD      CLOUDY    73  66  78 E3        30.18R
COLEMAN        CLOUDY    74  65  74 E9        30.19R
$$

TXZ143>147-156>162-174-175-250500-
CENTRAL TEXAS

CITY           SKY/WX    TMP DP  RH WIND       PRES   REMARKS
WACO           PTCLDY    74  72  93 N3        30.13R
WACO-TSTC      CLEAR     73  72  94 CALM      30.13R
WACO-MCGREGOR  CLEAR     74  71  91 N5        30.14R
HILLSBORO      CLOUDY    75  72  90 NE3       30.15R
CORSICANA      MOCLDY    76  70  82 E5        30.15R
MEXIA          CLOUDY    76  71  86 N6        30.12R
HEARNE         PTCLDY    75  75  98 CALM      30.12R
CAMERON        PTCLDY    75  72  91 CALM      30.13R
TEMPLE         CLEAR     72  70  93 NE6       30.14R
KILLEEN        CLEAR     73  69  88 NE7       30.15R
KILLEEN-SKYLRK CLEAR     72  69  90 CALM      30.15R
FORT HOOD      CLEAR     72  68  87 CALM      30.12R
HAMILTON       CLEAR     72  71  98 CALM      30.18R
LAMPASAS         N/A     73  70  89 CALM      30.16R
$$

TXZ095>097-106>112-122>126-135>138-148>153-164>167-250500-
EAST TEXAS

CITY           SKY/WX    TMP DP  RH WIND       PRES   REMARKS
PARIS            N/A     72  65  78 E6        30.18R
SULPHUR SPRNGS   N/A     73  65  78 NE5       30.18R
MOUNT PLEASANT CLEAR     72  66  81 NE5       30.16R
GILMER         PTCLDY    72  67  84 N3        30.14R
MINEOLA        CLEAR     73  66  78 CALM      30.15R
TYLER          PTCLDY    75  71  87 NE6       30.13R
LONGVIEW       MOCLDY    75  70  84 NE6       30.12R
MARSHALL       CLOUDY    73  68  86 NE3       30.14S
PALESTINE      PTCLDY    75  72  91 N7        30.13R
JACKSONVILLE   MOCLDY    74  72  92 NE3       30.14R
HENDERSON      CLOUDY    76  67  75 NE6       30.14R
CENTER         LGT RAIN  78  77  96 E3        30.13S
NACOGDOCHES    MOCLDY    77  72  83 MISG      30.10R
LUFKIN         CLEAR     77  73  87 NE5       30.09R
$$

SUPPLEMENTAL OBSERVATIONS (NWS FORT WORTH AREA)

CITY           SKY/WX    TMP DP  RH WIND       PRES   REMARKS
DENISON DAM      N/A     73  63  68 NE3         N/A
CADDO GRASSLND   N/A     70  66  88 CALM        N/A
PAT MAYSE LAKE   N/A     73  68  83 E3          N/A
LBJ GRASSLAND    N/A     72  68  88 N2          N/A
POSSUM KINGDOM   N/A     73  68  83 E3          N/A
GRANBURY         N/A     73  66  78 NE3         N/A
COMANCHE         N/A     72  68  88 NE2         N/A
MCGREGOR         N/A     73  68  83 NE3         N/A
TEMPLE           N/A     73  70  88 NE5         N/A
LAKE LIMESTONE   N/A     77  72  83 NE6         N/A
ATHENS           N/A     73  66  78 NE2         N/A
$$

SUPPLEMENTAL OBSERVATIONS (NWS NORMAN AREA)

CITY           SKY/WX    TMP DP  RH WIND       PRES   REMARKS
GOODLETT         N/A     75  65  70 E7        30.21R
CROWELL          N/A     74  68  80 E8        30.21R
KNOX CITY        N/A     73  65  75 E7        30.20R
SEYMOUR          N/A     74  67  79 E5        30.20R
MILLERS CREEK    N/A     72  66  83 E6          N/A
$$

SUPPLEMENTAL OBSERVATIONS (NWS SAN ANGELO AREA)

CITY           SKY/WX    TMP DP  RH WIND       PRES   REMARKS
WEINERT          N/A     71  67  85 E6        30.21R
HASKELL          N/A     72  65  77 E7        30.20R
THROCKMORTON     N/A     70  68  92 E2        30.20R
STAMFORD         N/A     72  67  84 E9        30.21R
CLYDE            N/A     72  67  84 E9        30.22R
HAMBY            N/A     72  64  78 E10         N/A
IVIE RESERVOIR   N/A     75  66  73 E16G22      N/A
COLORADO BEND    N/A     72  68  88 SE3         N/A
$$

SUPPLEMENTAL OBSERVATIONS (NWS SHREVEPORT AREA)

CITY           SKY/WX    TMP DP  RH WIND       PRES   REMARKS
CLARKSVILLE      N/A     72  61  68 CALM        N/A
TEXARKANA        N/A     72  66  83 NE1         N/A
LINDEN           N/A     72  66  83 CALM        N/A
CADDO LAKE       N/A     73  66  78 NE3         N/A
GILMER           N/A     73  68  83 NE3         N/A
HENDERSON        N/A     75  68  78 E5          N/A
LUFKIN           N/A     79  73  83 MISG        N/A
N SABINE NF      N/A     73  72  94 MISG        N/A
S SABINE NF      N/A     75  70  83 N2          N/A
$$

SUPPLEMENTAL OBSERVATIONS ARE A COLLECTION OF AUTOMATED INSTRUMENTS
THAT ARE MAINTAINED BY A VARIETY OF FEDERAL AND STATE AGENCIES.
CERTAIN ELEMENTS...SUCH AS HUMIDITY VALUES AND SUSTAINED WIND
SPEEDS...MAY BE APPROXIMATED.





USA.gov is the U.S. government's official web portal to all federal, state and local government web resources and services.